軌道要素
Epoch 2006 Aug. 13.0 TT = JDT 2453960.5
T 2006 Aug. 30.18055 TT MPCLINUX
q 1.3593200 (2000.0) P Q
n 0.15075123 Peri. 128.04732 +0.94009680 +0.32129152
a 3.4964620 Node 213.65282 -0.33964831 +0.91143950
e 0.6112299 Incl. 11.86859 +0.02927514 +0.25700156
P 6.54
From 323 observations 2006 Aug. 23-2019 June 29, mean residual 0".7.
|